Regional Weather Roundup
Issued by NWS

Home | Current Version | Previous Version | Text Only | Print | Product List | Glossary Off
Versions: 1 2 3 4 5 6 7 8 9 10 11 12 13 14 15 16 17 18 19 20 21 22 23 24 25 26 27

000
ASUS45 KBOU 160707
RWRCO

WEATHER ROUNDUP FOR COLORADO
NATIONAL WEATHER SERVICE DENVER/BOULDER CO
100 AM MDT MON OCT 16 2017

NOTE: "FAIR" INDICATES FEW OR NO CLOUDS BELOW 12000 FEET WITH NO
SIGNIFICANT WEATHER AND/OR OBSTRUCTIONS TO VISIBILITY.

COZ001>005-013-030-031-160800-
...NORTHWEST COLORADO...

CITY           SKY/WX    TMP DP  RH WIND       PRES   REMARKS
CRAIG          FAIR      25  19  78 CALM      30.48S
HAYDEN         FAIR      35  16  45 E12       30.49F WCI  27
MEEKER         FAIR      32  16  51 CALM      30.48F
RABBIT EARS PA FAIR      36   5  27 W6        30.61F
STEAMBOAT SPGS FAIR      31  15  51 CALM      30.51S
WALDEN         FAIR      30  12  47 CALM      30.52F
$$

COZ006>008-011-160800-
...WEST CENTRAL VALLEYS...

CITY           SKY/WX    TMP DP  RH WIND       PRES   REMARKS
GRAND JUNCTION FAIR      41  13  31 E6        30.45F
MONTROSE       FAIR      33  16  49 S10       30.51F WCI  25
EAGLE          FAIR      30  18  60 CALM      30.55S
RIFLE          FAIR      33  19  56 CALM      30.49S
DELTA          FAIR      36  10  33 E5        30.49S
NUCLA          FAIR      36   9  32 E8        30.52F
$$

COZ017>023-064>068-160800-
...SOUTHWEST COLORADO...

CITY           SKY/WX    TMP DP  RH WIND       PRES   REMARKS
DURANGO        FAIR      30  14  51 N5        30.52F WCI  25
CORTEZ         FAIR      27  16  63 CALM      30.50S
PAGOSA SPRINGS FAIR      32  12  44 CALM      30.58S
TELLURIDE      NOT AVBL
WOLF CREEK PAS NOT AVBL
$$

COZ009-010-012-014-032>034-037-058>063-160800-
...CENTRAL COLORADO...

CITY           SKY/WX    TMP DP  RH WIND       PRES   REMARKS
ASPEN          FAIR      31  15  52 SW9       30.54F WCI  23
BUENA VISTA    FAIR      29  13  52 W3        30.55F
COPPER MTN     FAIR      37 -11  12 W13G18    30.69S
BERTHOUD PASS  FAIR      30  19  64 NW33G44   30.64F WCI  14
COTTONWOOD PAS FAIR      46  -4  12 NW3       30.61F
GUNNISON       FAIR      28  14  55 CALM      30.60R
KREMMLING      FAIR      28  19  69 CALM      30.56S
LEADVILLE      FAIR      32   0  25 VRB5      30.60S WCI  27
MONARCH PASS   FAIR      32   1  27 W25       30.80F WCI  19
SALIDA         NOT AVBL
SUNLIGHT       FAIR      36   0  21 SW10G16   30.68F
WILKERSON PASS FAIR      37  -8  14 W8        30.68S
$$

COZ069>075-160800-
...SAN LUIS VALLEY/SANGRE DE CRISTO MOUNTAINS...

CITY           SKY/WX    TMP DP  RH WIND       PRES   REMARKS
ALAMOSA        FAIR      26  14  60 SE5       30.54F WCI  20
DEL NORTE      FAIR      42   9  25 W13       30.56S
LA VETA PASS   FAIR      37  10  32 MISG      30.72F
SAGUACHE       FAIR      36   9  32 NW15      30.56S
$$

COZ035-036-038>040-160800-
...NORTHERN COLORADO FRONT RANGE...

CITY           SKY/WX    TMP DP  RH WIND       PRES   REMARKS
DENVER INTL AP FAIR      41  26  55 SW9       30.38F
DMNS CITY PARK   N/A     42  27  56 SE10      30.39F
AURORA         CLEAR     37  25  61 S8        30.40F
FRONT RANGE AP FAIR      45  28  53 SW10G16   30.39F
ERIE MUNI ARPT FAIR      35  30  82 SW5       30.43F WCI  31
BOULDER MUN AP FAIR      43  25  49 SW3       30.38F HAZE
CENTENNIAL     FAIR      38  25  59 S7        30.40F
BROOMFIELD     FAIR      46  23  39 CALM      30.40F
FORT COLLINS   FAIR      40  28  62 N5        30.37F
LONGMONT       FAIR      36  29  74 SW3       30.40F
$$

COZ041-046-047-076>085-087-088-160800-
...PIKES PEAK/PALMER DIVIDE AND SOUTHERN FOOTHILLS...

CITY           SKY/WX    TMP DP  RH WIND       PRES   REMARKS
COLO. SPRINGS  FAIR      36  23  59 N7        30.45F
A. F. ACADEMY  FAIR      30  20  66 N14       30.45F WCI  19
SCHRIEVER AFB  FAIR      37  20  51 MISG      30.45F
CHEYENNE MTN   FAIR      47  13  25 CALM      30.40F
ELLICOTT       FAIR     N/A N/A N/A CALM      30.44F
FALCON         FAIR      35  19  51 W5        30.47F WCI  31
FORT CARSON    FAIR      39  21  48 NW8       30.43F
LIMON          FAIR      26  23  88 N7        30.42F WCI  18
MONUMENT HILL  FAIR      37  19  48 S10       30.46F
CANON CITY     CLEAR     43  25  49 W7        30.43F
WALSENBURG     FAIR      39  23  52 CALM      30.45S
TRINIDAD       FAIR      42  27  55 NW9       30.44F
$$

COZ042>045-048>051-090-091-160800-
...NORTHEAST COLORADO...

CITY           SKY/WX    TMP DP  RH WIND       PRES   REMARKS
GREELEY ARPT   FAIR      34  27  75 NW5       30.38F WCI  30
AKRON          FAIR      46  24  42 S10       30.36F
BURLINGTON     FAIR      39  27  62 S7        30.39F
WRAY           FAIR      37  28  70 W7        30.36F
YUMA           NOT AVBL
STERLING       FAIR      34  28  80 W6        30.34F WCI  29
HOLYOKE        FAIR      37  32  81 SW3       30.35F
FORT MORGAN    FAIR      35  23  61 SW6       30.36F WCI  30
$$

COZ086-089-092>099-160800-
...SOUTHEAST COLORADO...

CITY           SKY/WX    TMP DP  RH WIND       PRES   REMARKS
PUEBLO         FAIR      38  25  59 W5        30.41F
LA JUNTA       FAIR      38  31  76 NW8       30.39F
LAMAR          FAIR      34  26  72 SW3       30.37F
SPRINGFIELD      N/A     31  28  89 SW9       30.41F WCI  23
$$




USA.gov is the U.S. government's official web portal to all federal, state and local government web resources and services.